Time,TemperatureF,DewpointF,PressureIn,WindDirection,WindDirectionDegrees,WindSpeedMPH,WindSpeedGustMPH,Humidity,HourlyPrecipIn,Conditions,Clouds,dailyrainin,SoftwareType,DateUTC
2013-05-12 00:01:00,62.9,62.0,29.77,WNW,285,3.0,3.0,97,0.00,,,0.00,Wunderground v.1.15,2013-05-12 04:01:00,
2013-05-12 00:02:00,62.9,61.7,29.77,WNW,286,2.0,3.0,96,0.00,,,0.00,Wunderground v.1.15,2013-05-12 04:02:00,
2013-05-12 00:03:00,62.9,61.7,29.77,WNW,286,2.0,3.0,96,0.00,,,0.00,Wunderground v.1.15,2013-05-12 04:03:00,
2013-05-12 00:05:00,62.9,61.7,29.78,WNW,286,2.0,3.0,96,0.00,,,0.00,Wunderground v.1.15,2013-05-12 04:05:00,
2013-05-12 00:11:00,62.7,61.5,29.78,WNW,286,3.0,3.0,96,0.00,,,0.00,Wunderground v.1.15,2013-05-12 04:11:00,
2013-05-12 00:17:00,62.6,61.4,29.78,WNW,285,3.0,3.0,96,0.00,,,0.00,Wunderground v.1.15,2013-05-12 04:17:00,
2013-05-12 00:22:00,62.4,60.9,29.78,West,275,3.0,4.0,95,0.00,,,0.00,Wunderground v.1.15,2013-05-12 04:22:00,
2013-05-12 00:28:00,62.2,60.5,29.77,West,277,4.0,4.0,94,0.00,,,0.00,Wunderground v.1.15,2013-05-12 04:28:00,
2013-05-12 00:33:00,62.0,60.0,29.77,West,277,2.0,4.0,93,0.00,,,0.00,Wunderground v.1.15,2013-05-12 04:33:00,
2013-05-12 00:39:00,61.9,59.9,29.77,West,277,2.0,4.0,93,0.00,,,0.00,Wunderground v.1.15,2013-05-12 04:39:00,
2013-05-12 00:45:00,61.8,59.5,29.77,West,277,2.0,4.0,92,0.00,,,0.00,Wunderground v.1.15,2013-05-12 04:45:00,
2013-05-12 00:50:00,61.8,59.1,29.78,West,275,3.0,3.0,91,0.00,,,0.00,Wunderground v.1.15,2013-05-12 04:50:00,
2013-05-12 00:56:00,61.8,58.8,29.77,West,275,3.0,3.0,90,0.00,,,0.00,Wunderground v.1.15,2013-05-12 04:56:00,
2013-05-12 01:01:00,61.6,58.6,29.77,West,275,3.0,3.0,90,0.00,,,0.00,Wunderground v.1.15,2013-05-12 05:01:00,
2013-05-12 01:06:00,61.6,58.6,29.78,West,275,2.0,3.0,90,0.00,,,0.00,Wunderground v.1.15,2013-05-12 05:06:00,
2013-05-12 01:11:00,61.6,58.3,29.78,West,275,3.0,3.0,89,0.00,,,0.00,Wunderground v.1.15,2013-05-12 05:11:00,
2013-05-12 01:17:00,61.7,58.4,29.78,West,275,1.0,3.0,89,0.00,,,0.00,Wunderground v.1.15,2013-05-12 05:17:00,
2013-05-12 01:22:00,61.4,58.1,29.78,West,276,2.0,3.0,89,0.00,,,0.00,Wunderground v.1.15,2013-05-12 05:22:00,
2013-05-12 01:28:00,61.3,58.0,29.78,West,275,2.0,3.0,89,0.00,,,0.00,Wunderground v.1.15,2013-05-12 05:28:00,
2013-05-12 01:33:00,61.2,57.6,29.77,WNW,287,4.0,4.0,88,0.00,,,0.00,Wunderground v.1.15,2013-05-12 05:33:00,
2013-05-12 01:39:00,61.3,57.4,29.77,WNW,287,2.0,4.0,87,0.00,,,0.00,Wunderground v.1.15,2013-05-12 05:39:00,
2013-05-12 01:45:00,61.2,57.3,29.77,WNW,290,5.0,5.0,87,0.00,,,0.00,Wunderground v.1.15,2013-05-12 05:45:00,
2013-05-12 01:51:00,61.2,56.7,29.77,WNW,290,3.0,4.0,85,0.00,,,0.00,Wunderground v.1.15,2013-05-12 05:51:00,
2013-05-12 01:57:00,61.3,56.4,29.77,WNW,296,3.0,5.0,84,0.00,,,0.00,Wunderground v.1.15,2013-05-12 05:57:00,
2013-05-12 02:02:00,61.2,56.3,29.77,WNW,284,3.0,6.0,84,0.00,,,0.00,Wunderground v.1.15,2013-05-12 06:02:00,
2013-05-12 02:07:00,61.4,55.9,29.78,West,281,2.0,6.0,82,0.00,,,0.00,Wunderground v.1.15,2013-05-12 06:07:00,
2013-05-12 02:12:00,61.4,56.2,29.78,WNW,282,2.0,4.0,83,0.00,,,0.00,Wunderground v.1.15,2013-05-12 06:12:00,
2013-05-12 02:17:00,61.2,55.7,29.78,West,275,8.0,8.0,82,0.00,,,0.00,Wunderground v.1.15,2013-05-12 06:17:00,
2013-05-12 02:22:00,61.1,55.6,29.77,WNW,284,1.0,5.0,82,0.00,,,0.00,Wunderground v.1.15,2013-05-12 06:22:00,
2013-05-12 02:27:00,61.0,55.5,29.77,West,280,4.0,10.0,82,0.00,,,0.00,Wunderground v.1.15,2013-05-12 06:27:00,
2013-05-12 02:32:00,60.9,55.4,29.77,WNW,288,4.0,6.0,82,0.00,,,0.00,Wunderground v.1.15,2013-05-12 06:32:00,
2013-05-12 02:37:00,60.6,54.7,29.76,West,269,7.0,8.0,81,0.00,,,0.00,Wunderground v.1.15,2013-05-12 06:37:00,
2013-05-12 02:42:00,60.6,54.4,29.76,WNW,295,3.0,4.0,80,0.00,,,0.00,Wunderground v.1.15,2013-05-12 06:42:00,
2013-05-12 02:47:00,60.6,54.4,29.77,WNW,291,3.0,8.0,80,0.00,,,0.00,Wunderground v.1.15,2013-05-12 06:47:00,
2013-05-12 02:52:00,60.5,54.0,29.77,WNW,294,3.0,6.0,79,0.00,,,0.00,Wunderground v.1.15,2013-05-12 06:52:00,
2013-05-12 02:57:00,60.4,53.9,29.76,WNW,282,5.0,6.0,79,0.00,,,0.00,Wunderground v.1.15,2013-05-12 06:57:00,
2013-05-12 03:02:00,60.2,53.7,29.77,WNW,293,4.0,6.0,79,0.00,,,0.00,Wunderground v.1.15,2013-05-12 07:02:00,
2013-05-12 03:07:00,60.2,53.3,29.76,West,277,7.0,9.0,78,0.00,,,0.00,Wunderground v.1.15,2013-05-12 07:07:00,
2013-05-12 03:12:00,60.2,53.0,29.76,WNW,301,4.0,10.0,77,0.00,,,0.00,Wunderground v.1.15,2013-05-12 07:12:00,
2013-05-12 03:17:00,60.1,53.2,29.76,West,281,5.0,10.0,78,0.00,,,0.00,Wunderground v.1.15,2013-05-12 07:17:00,
2013-05-12 03:22:00,60.0,52.8,29.77,WNW,296,4.0,8.0,77,0.00,,,0.00,Wunderground v.1.15,2013-05-12 07:22:00,
2013-05-12 03:27:00,60.0,52.4,29.77,West,270,2.0,8.0,76,0.00,,,0.00,Wunderground v.1.15,2013-05-12 07:27:00,
2013-05-12 03:32:00,59.9,52.7,29.77,WNW,297,3.0,7.0,77,0.00,,,0.00,Wunderground v.1.15,2013-05-12 07:32:00,
2013-05-12 03:37:00,59.8,52.6,29.78,WNW,286,3.0,7.0,77,0.00,,,0.00,Wunderground v.1.15,2013-05-12 07:37:00,
2013-05-12 03:42:00,59.8,52.6,29.77,NW,307,5.0,9.0,77,0.00,,,0.00,Wunderground v.1.15,2013-05-12 07:42:00,
2013-05-12 03:47:00,59.8,52.2,29.78,WNW,288,6.0,10.0,76,0.00,,,0.00,Wunderground v.1.15,2013-05-12 07:47:00,
2013-05-12 03:52:00,59.7,51.8,29.77,WNW,287,7.0,8.0,75,0.00,,,0.00,Wunderground v.1.15,2013-05-12 07:52:00,
2013-05-12 03:57:00,59.6,52.0,29.78,WNW,286,6.0,10.0,76,0.00,,,0.00,Wunderground v.1.15,2013-05-12 07:57:00,
2013-05-12 04:02:00,59.7,51.8,29.78,West,280,7.0,9.0,75,0.00,,,0.00,Wunderground v.1.15,2013-05-12 08:02:00,
2013-05-12 04:07:00,59.7,51.4,29.78,WNW,286,4.0,9.0,74,0.00,,,0.00,Wunderground v.1.15,2013-05-12 08:07:00,
2013-05-12 04:12:00,59.7,51.4,29.78,West,274,10.0,10.0,74,0.00,,,0.00,Wunderground v.1.15,2013-05-12 08:12:00,
2013-05-12 04:17:00,59.6,51.3,29.78,West,281,3.0,10.0,74,0.00,,,0.00,Wunderground v.1.15,2013-05-12 08:17:00,
2013-05-12 04:22:00,59.4,51.1,29.78,NW,314,1.0,10.0,74,0.00,,,0.00,Wunderground v.1.15,2013-05-12 08:22:00,
2013-05-12 04:27:00,59.3,51.4,29.78,West,259,4.0,10.0,75,0.00,,,0.00,Wunderground v.1.15,2013-05-12 08:27:00,
2013-05-12 04:32:00,59.3,51.0,29.78,West,280,6.0,7.0,74,0.00,,,0.00,Wunderground v.1.15,2013-05-12 08:32:00,
2013-05-12 04:37:00,59.1,51.2,29.78,WNW,299,3.0,8.0,75,0.00,,,0.00,Wunderground v.1.15,2013-05-12 08:37:00,
2013-05-12 04:42:00,59.0,50.7,29.78,WNW,286,8.0,8.0,74,0.00,,,0.00,Wunderground v.1.15,2013-05-12 08:42:00,
2013-05-12 04:47:00,58.6,50.7,29.79,WNW,287,5.0,8.0,75,0.00,,,0.00,Wunderground v.1.15,2013-05-12 08:47:00,
2013-05-12 04:52:00,58.5,50.6,29.79,WNW,287,4.0,5.0,75,0.00,,,0.00,Wunderground v.1.15,2013-05-12 08:52:00,
2013-05-12 04:57:00,58.5,50.2,29.79,WNW,284,4.0,11.0,74,0.00,,,0.00,Wunderground v.1.15,2013-05-12 08:57:00,
2013-05-12 05:02:00,58.6,50.0,29.79,WNW,303,6.0,7.0,73,0.00,,,0.00,Wunderground v.1.15,2013-05-12 09:02:00,
2013-05-12 05:07:00,58.3,49.7,29.79,West,280,4.0,8.0,73,0.00,,,0.00,Wunderground v.1.15,2013-05-12 09:07:00,
2013-05-12 05:12:00,58.0,49.8,29.78,WNW,290,3.0,7.0,74,0.00,,,0.00,Wunderground v.1.15,2013-05-12 09:12:00,
2013-05-12 05:17:00,57.8,49.6,29.79,WNW,300,3.0,7.0,74,0.00,,,0.00,Wunderground v.1.15,2013-05-12 09:17:00,
2013-05-12 05:22:00,57.8,49.6,29.79,WNW,287,4.0,9.0,74,0.00,,,0.00,Wunderground v.1.15,2013-05-12 09:22:00,
2013-05-12 05:28:00,57.6,49.4,29.79,West,280,7.0,9.0,74,0.00,,,0.00,Wunderground v.1.15,2013-05-12 09:28:00,
2013-05-12 05:33:00,57.5,49.3,29.80,WSW,254,6.0,8.0,74,0.00,,,0.00,Wunderground v.1.15,2013-05-12 09:33:00,
2013-05-12 05:38:00,57.4,49.2,29.79,WNW,288,5.0,9.0,74,0.00,,,0.00,Wunderground v.1.15,2013-05-12 09:38:00,
2013-05-12 05:43:00,57.3,49.1,29.79,WNW,300,4.0,8.0,74,0.00,,,0.00,Wunderground v.1.15,2013-05-12 09:43:00,
2013-05-12 05:48:00,57.3,48.7,29.80,WNW,290,6.0,8.0,73,0.00,,,0.00,Wunderground v.1.15,2013-05-12 09:48:00,
2013-05-12 05:53:00,57.3,49.1,29.79,WNW,290,2.0,7.0,74,0.00,,,0.00,Wunderground v.1.15,2013-05-12 09:53:00,
2013-05-12 05:58:00,57.2,48.6,29.79,West,270,7.0,8.0,73,0.00,,,0.00,Wunderground v.1.15,2013-05-12 09:58:00,
2013-05-12 06:03:00,57.1,48.5,29.78,West,277,4.0,7.0,73,0.00,,,0.00,Wunderground v.1.15,2013-05-12 10:03:00,
2013-05-12 06:08:00,56.9,48.7,29.78,West,276,3.0,7.0,74,0.00,,,0.00,Wunderground v.1.15,2013-05-12 10:08:00,
2013-05-12 06:13:00,56.9,48.7,29.79,NW,304,3.0,6.0,74,0.00,,,0.00,Wunderground v.1.15,2013-05-12 10:13:00,
2013-05-12 06:18:00,56.9,48.7,29.79,West,274,3.0,6.0,74,0.00,,,0.00,Wunderground v.1.15,2013-05-12 10:18:00,
2013-05-12 06:23:00,56.8,48.6,29.79,WNW,300,3.0,5.0,74,0.00,,,0.00,Wunderground v.1.15,2013-05-12 10:23:00,
2013-05-12 06:28:00,56.7,48.5,29.80,West,281,5.0,6.0,74,0.00,,,0.00,Wunderground v.1.15,2013-05-12 10:28:00,
2013-05-12 06:33:00,56.6,48.4,29.80,West,269,4.0,5.0,74,0.00,,,0.00,Wunderground v.1.15,2013-05-12 10:33:00,
2013-05-12 06:38:00,56.4,48.6,29.80,WNW,298,3.0,5.0,75,0.00,,,0.00,Wunderground v.1.15,2013-05-12 10:38:00,
2013-05-12 06:43:00,56.4,48.2,29.80,West,268,3.0,5.0,74,0.00,,,0.00,Wunderground v.1.15,2013-05-12 10:43:00,
2013-05-12 06:48:00,56.4,48.6,29.81,WNW,290,4.0,7.0,75,0.00,,,0.00,Wunderground v.1.15,2013-05-12 10:48:00,
2013-05-12 06:53:00,56.4,48.2,29.81,West,278,2.0,5.0,74,0.00,,,0.00,Wunderground v.1.15,2013-05-12 10:53:00,
2013-05-12 06:58:00,56.3,48.1,29.81,WNW,286,3.0,5.0,74,0.00,,,0.00,Wunderground v.1.15,2013-05-12 10:58:00,
2013-05-12 07:03:00,56.2,48.4,29.81,West,281,5.0,5.0,75,0.00,,,0.00,Wunderground v.1.15,2013-05-12 11:03:00,
2013-05-12 07:08:00,56.2,48.7,29.81,West,281,2.0,5.0,76,0.00,,,0.00,Wunderground v.1.15,2013-05-12 11:08:00,
2013-05-12 07:13:00,56.3,49.2,29.81,WNW,288,3.0,5.0,77,0.00,,,0.00,Wunderground v.1.15,2013-05-12 11:13:00,
2013-05-12 07:18:00,56.6,49.5,29.81,WNW,292,3.0,5.0,77,0.00,,,0.00,Wunderground v.1.15,2013-05-12 11:18:00,
2013-05-12 07:23:00,57.1,49.6,29.81,West,277,3.0,5.0,76,0.00,,,0.00,Wunderground v.1.15,2013-05-12 11:23:00,
2013-05-12 07:29:00,57.6,49.7,29.81,West,263,5.0,5.0,75,0.00,,,0.00,Wunderground v.1.15,2013-05-12 11:29:00,
2013-05-12 07:34:00,57.9,50.0,29.81,WNW,286,5.0,7.0,75,0.00,,,0.00,Wunderground v.1.15,2013-05-12 11:34:00,
2013-05-12 07:39:00,58.2,50.3,29.81,West,271,2.0,8.0,75,0.00,,,0.00,Wunderground v.1.15,2013-05-12 11:39:00,
2013-05-12 07:44:00,58.5,50.2,29.81,West,275,5.0,8.0,74,0.00,,,0.00,Wunderground v.1.15,2013-05-12 11:44:00,
2013-05-12 07:49:00,58.7,50.4,29.81,WNW,296,9.0,12.0,74,0.00,,,0.00,Wunderground v.1.15,2013-05-12 11:49:00,
2013-05-12 07:54:00,58.9,50.6,29.81,WNW,301,7.0,10.0,74,0.00,,,0.00,Wunderground v.1.15,2013-05-12 11:54:00,
2013-05-12 07:59:00,59.0,50.4,29.81,West,271,5.0,12.0,73,0.00,,,0.00,Wunderground v.1.15,2013-05-12 11:59:00,
2013-05-12 08:04:00,59.1,50.1,29.82,WNW,290,3.0,11.0,72,0.00,,,0.00,Wunderground v.1.15,2013-05-12 12:04:00,
2013-05-12 08:09:00,59.3,49.9,29.82,WNW,300,6.0,18.0,71,0.00,,,0.00,Wunderground v.1.15,2013-05-12 12:09:00,
2013-05-12 08:14:00,59.3,50.6,29.82,West,262,12.0,13.0,73,0.00,,,0.00,Wunderground v.1.15,2013-05-12 12:14:00,
2013-05-12 08:19:00,59.4,47.2,29.82,NW,304,6.0,15.0,64,0.00,,,0.00,Wunderground v.1.15,2013-05-12 12:19:00,
2013-05-12 08:24:00,59.3,46.3,29.83,West,277,6.0,17.0,62,0.00,,,0.00,Wunderground v.1.15,2013-05-12 12:24:00,
2013-05-12 08:29:00,59.6,47.8,29.83,West,261,6.0,17.0,65,0.00,,,0.00,Wunderground v.1.15,2013-05-12 12:29:00,
2013-05-12 08:34:00,59.9,46.4,29.84,West,281,5.0,12.0,61,0.00,,,0.00,Wunderground v.1.15,2013-05-12 12:34:00,
2013-05-12 08:39:00,59.4,46.4,29.83,West,280,14.0,14.0,62,0.00,,,0.00,Wunderground v.1.15,2013-05-12 12:39:00,
2013-05-12 08:44:00,59.2,46.2,29.84,West,280,7.0,19.0,62,0.00,,,0.00,Wunderground v.1.15,2013-05-12 12:44:00,
2013-05-12 08:49:00,59.4,45.5,29.84,WNW,295,4.0,19.0,60,0.00,,,0.00,Wunderground v.1.15,2013-05-12 12:49:00,
2013-05-12 08:54:00,59.7,47.1,29.85,West,263,6.0,13.0,63,0.00,,,0.00,Wunderground v.1.15,2013-05-12 12:54:00,
2013-05-12 08:59:00,59.6,45.7,29.85,NW,305,8.0,14.0,60,0.00,,,0.00,Wunderground v.1.15,2013-05-12 12:59:00,
2013-05-12 09:04:00,59.7,46.7,29.85,West,279,4.0,12.0,62,0.00,,,0.00,Wunderground v.1.15,2013-05-12 13:04:00,
2013-05-12 09:10:00,59.0,44.7,29.85,WNW,284,6.0,7.0,59,0.00,,,0.00,Wunderground v.1.15,2013-05-12 13:10:00,
2013-05-12 09:15:00,58.6,44.8,29.86,West,265,6.0,12.0,60,0.00,,,0.00,Wunderground v.1.15,2013-05-12 13:15:00,
2013-05-12 09:20:00,57.9,42.3,29.86,West,263,7.0,7.0,56,0.00,,,0.00,Wunderground v.1.15,2013-05-12 13:20:00,
2013-05-12 09:25:00,57.5,41.0,29.86,WNW,284,11.0,15.0,54,0.00,,,0.00,Wunderground v.1.15,2013-05-12 13:25:00,
2013-05-12 09:30:00,57.5,40.0,29.86,WSW,254,5.0,8.0,52,0.00,,,0.00,Wunderground v.1.15,2013-05-12 13:30:00,
2013-05-12 09:35:00,57.6,39.6,29.86,West,260,8.0,16.0,51,0.00,,,0.00,Wunderground v.1.15,2013-05-12 13:35:00,
2013-05-12 09:40:00,57.2,39.7,29.87,West,266,13.0,14.0,52,0.00,,,0.00,Wunderground v.1.15,2013-05-12 13:40:00,
2013-05-12 09:45:00,56.6,39.2,29.86,SW,236,7.0,17.0,52,0.00,,,0.00,Wunderground v.1.15,2013-05-12 13:45:00,
2013-05-12 09:50:00,56.9,40.4,29.86,West,281,11.0,11.0,54,0.00,,,0.00,Wunderground v.1.15,2013-05-12 13:50:00,
2013-05-12 09:55:00,57.8,41.3,29.87,West,281,11.0,14.0,54,0.00,,,0.00,Wunderground v.1.15,2013-05-12 13:55:00,
2013-05-12 10:00:00,58.4,42.8,29.87,WNW,287,3.0,7.0,56,0.00,,,0.00,Wunderground v.1.15,2013-05-12 14:00:00,
2013-05-12 10:05:00,58.9,42.3,29.87,WNW,303,5.0,14.0,54,0.00,,,0.00,Wunderground v.1.15,2013-05-12 14:05:00,
2013-05-12 10:10:00,59.0,41.4,29.87,West,279,6.0,7.0,52,0.00,,,0.00,Wunderground v.1.15,2013-05-12 14:10:00,
2013-05-12 10:15:00,59.6,43.9,29.87,West,271,11.0,12.0,56,0.00,,,0.00,Wunderground v.1.15,2013-05-12 14:15:00,
2013-05-12 10:20:00,59.5,42.3,29.87,West,272,4.0,6.0,53,0.00,,,0.00,Wunderground v.1.15,2013-05-12 14:20:00,
2013-05-12 10:25:00,59.5,42.8,29.87,West,279,7.0,18.0,54,0.00,,,0.00,Wunderground v.1.15,2013-05-12 14:25:00,
2013-05-12 10:30:00,59.0,41.9,29.87,West,270,5.0,9.0,53,0.00,,,0.00,Wunderground v.1.15,2013-05-12 14:30:00,
2013-05-12 10:35:00,59.4,41.8,29.87,WNW,299,7.0,15.0,52,0.00,,,0.00,Wunderground v.1.15,2013-05-12 14:35:00,
2013-05-12 10:40:00,59.9,43.2,29.86,WNW,294,7.0,10.0,54,0.00,,,0.00,Wunderground v.1.15,2013-05-12 14:40:00,
2013-05-12 10:45:00,59.9,41.7,29.87,West,266,12.0,18.0,51,0.00,,,0.00,Wunderground v.1.15,2013-05-12 14:45:00,
2013-05-12 10:50:00,60.3,43.1,29.87,West,273,7.0,12.0,53,0.00,,,0.00,Wunderground v.1.15,2013-05-12 14:50:00,
2013-05-12 10:55:00,60.5,43.3,29.87,NW,306,11.0,15.0,53,0.00,,,0.00,Wunderground v.1.15,2013-05-12 14:55:00,
2013-05-12 11:00:00,60.4,42.7,29.87,WNW,297,4.0,9.0,52,0.00,,,0.00,Wunderground v.1.15,2013-05-12 15:00:00,
2013-05-12 11:05:00,60.5,41.8,29.87,West,275,10.0,17.0,50,0.00,,,0.00,Wunderground v.1.15,2013-05-12 15:05:00,
2013-05-12 11:10:00,60.1,41.9,29.87,WNW,299,2.0,12.0,51,0.00,,,0.00,Wunderground v.1.15,2013-05-12 15:10:00,
2013-05-12 11:15:00,60.7,43.5,29.87,West,263,6.0,12.0,53,0.00,,,0.00,Wunderground v.1.15,2013-05-12 15:15:00,
2013-05-12 11:20:00,61.2,42.9,29.87,WNW,284,2.0,7.0,51,0.00,,,0.00,Wunderground v.1.15,2013-05-12 15:20:00,
2013-05-12 11:25:00,61.3,42.5,29.87,West,273,10.0,13.0,50,0.00,,,0.00,Wunderground v.1.15,2013-05-12 15:25:00,
2013-05-12 11:30:00,60.6,43.4,29.87,WNW,298,11.0,14.0,53,0.00,,,0.00,Wunderground v.1.15,2013-05-12 15:30:00,
2013-05-12 11:35:00,60.2,42.0,29.87,WNW,292,2.0,18.0,51,0.00,,,0.00,Wunderground v.1.15,2013-05-12 15:35:00,
2013-05-12 11:40:00,61.0,42.2,29.87,West,280,5.0,14.0,50,0.00,,,0.00,Wunderground v.1.15,2013-05-12 15:40:00,
2013-05-12 11:45:00,61.0,42.7,29.87,NW,307,12.0,18.0,51,0.00,,,0.00,Wunderground v.1.15,2013-05-12 15:45:00,
2013-05-12 11:50:00,60.8,42.0,29.87,WNW,295,5.0,13.0,50,0.00,,,0.00,Wunderground v.1.15,2013-05-12 15:50:00,
2013-05-12 11:55:00,60.8,42.5,29.88,WNW,302,10.0,17.0,51,0.00,,,0.00,Wunderground v.1.15,2013-05-12 15:55:00,
2013-05-12 12:00:00,61.1,42.8,29.88,WNW,282,16.0,20.0,51,0.00,,,0.00,Wunderground v.1.15,2013-05-12 16:00:00,
2013-05-12 12:05:00,61.2,42.9,29.88,NW,306,11.0,20.0,51,0.00,,,0.00,Wunderground v.1.15,2013-05-12 16:05:00,
2013-05-12 12:10:00,61.4,44.6,29.88,WNW,294,6.0,11.0,54,0.00,,,0.00,Wunderground v.1.15,2013-05-12 16:10:00,
2013-05-12 12:16:00,61.3,43.5,29.88,WNW,302,7.0,17.0,52,0.00,,,0.00,Wunderground v.1.15,2013-05-12 16:16:00,
2013-05-12 12:21:00,61.8,43.5,29.88,West,262,7.0,9.0,51,0.00,,,0.00,Wunderground v.1.15,2013-05-12 16:21:00,
2013-05-12 12:26:00,61.3,43.0,29.88,West,267,12.0,16.0,51,0.00,,,0.00,Wunderground v.1.15,2013-05-12 16:26:00,
2013-05-12 12:31:00,60.9,42.6,29.87,West,259,10.0,10.0,51,0.00,,,0.00,Wunderground v.1.15,2013-05-12 16:31:00,
2013-05-12 12:36:00,61.4,41.0,29.88,West,264,5.0,14.0,47,0.00,,,0.00,Wunderground v.1.15,2013-05-12 16:36:00,
2013-05-12 12:41:00,61.5,42.2,29.88,NNW,330,8.0,13.0,49,0.00,,,0.00,Wunderground v.1.15,2013-05-12 16:41:00,
2013-05-12 12:46:00,61.1,40.7,29.88,West,275,9.0,15.0,47,0.00,,,0.00,Wunderground v.1.15,2013-05-12 16:46:00,
2013-05-12 12:51:00,61.2,40.2,29.88,West,271,13.0,14.0,46,0.00,,,0.00,Wunderground v.1.15,2013-05-12 16:51:00,
2013-05-12 12:56:00,61.8,41.9,29.88,WNW,284,4.0,14.0,48,0.00,,,0.00,Wunderground v.1.15,2013-05-12 16:56:00,
2013-05-12 13:01:00,62.1,40.5,29.88,WNW,286,6.0,20.0,45,0.00,,,0.00,Wunderground v.1.15,2013-05-12 17:01:00,
2013-05-12 13:06:00,61.8,40.2,29.88,WNW,290,9.0,20.0,45,0.00,,,0.00,Wunderground v.1.15,2013-05-12 17:06:00,
2013-05-12 13:11:00,61.7,40.1,29.88,WNW,302,14.0,17.0,45,0.00,,,0.00,Wunderground v.1.15,2013-05-12 17:11:00,
2013-05-12 13:16:00,61.4,39.3,29.88,WNW,284,5.0,18.0,44,0.00,,,0.00,Wunderground v.1.15,2013-05-12 17:16:00,
2013-05-12 13:21:00,62.1,40.5,29.89,WNW,295,10.0,13.0,45,0.00,,,0.00,Wunderground v.1.15,2013-05-12 17:21:00,
2013-05-12 13:26:00,61.3,38.0,29.88,WSW,251,6.0,17.0,42,0.00,,,0.00,Wunderground v.1.15,2013-05-12 17:26:00,
2013-05-12 13:32:00,60.5,38.5,29.89,West,273,6.0,12.0,44,0.00,,,0.00,Wunderground v.1.15,2013-05-12 17:32:00,
2013-05-12 13:37:00,61.6,37.0,29.89,WSW,250,4.0,13.0,40,0.00,,,0.00,Wunderground v.1.15,2013-05-12 17:37:00,
2013-05-12 13:42:00,62.2,40.0,29.89,WSW,258,2.0,8.0,44,0.00,,,0.00,Wunderground v.1.15,2013-05-12 17:42:00,
2013-05-12 13:47:00,62.5,38.5,29.89,West,277,11.0,12.0,41,0.00,,,0.00,Wunderground v.1.15,2013-05-12 17:47:00,
2013-05-12 13:52:00,61.6,37.7,29.89,NW,316,4.0,11.0,41,0.00,,,0.00,Wunderground v.1.15,2013-05-12 17:52:00,
2013-05-12 13:57:00,61.3,35.5,29.89,West,277,4.0,14.0,38,0.00,,,0.00,Wunderground v.1.15,2013-05-12 17:57:00,
2013-05-12 14:02:00,61.3,35.5,29.89,West,281,2.0,8.0,38,0.00,,,0.00,Wunderground v.1.15,2013-05-12 18:02:00,
2013-05-12 14:07:00,62.6,39.2,29.89,WNW,291,5.0,11.0,42,0.00,,,0.00,Wunderground v.1.15,2013-05-12 18:07:00,
2013-05-12 14:12:00,62.7,35.3,29.89,WSW,252,4.0,9.0,36,0.00,,,0.00,Wunderground v.1.15,2013-05-12 18:12:00,
2013-05-12 14:17:00,63.2,39.1,29.89,West,280,3.0,14.0,41,0.00,,,0.00,Wunderground v.1.15,2013-05-12 18:17:00,
2013-05-12 14:22:00,62.5,36.5,29.89,West,265,6.0,7.0,38,0.00,,,0.00,Wunderground v.1.15,2013-05-12 18:22:00,
2013-05-12 14:27:00,63.3,38.6,29.89,West,261,9.0,10.0,40,0.00,,,0.00,Wunderground v.1.15,2013-05-12 18:27:00,
2013-05-12 14:32:00,63.2,39.7,29.90,West,260,7.0,8.0,42,0.00,,,0.00,Wunderground v.1.15,2013-05-12 18:32:00,
2013-05-12 14:37:00,63.5,40.0,29.89,WNW,288,3.0,8.0,42,0.00,,,0.00,Wunderground v.1.15,2013-05-12 18:37:00,
2013-05-12 14:42:00,63.5,39.4,29.89,WNW,283,11.0,14.0,41,0.00,,,0.00,Wunderground v.1.15,2013-05-12 18:42:00,
2013-05-12 14:47:00,63.0,37.0,29.89,WNW,294,7.0,18.0,38,0.00,,,0.00,Wunderground v.1.15,2013-05-12 18:47:00,
2013-05-12 14:52:00,62.6,33.1,29.89,WNW,298,13.0,17.0,33,0.00,,,0.00,Wunderground v.1.15,2013-05-12 18:52:00,
2013-05-12 14:57:00,62.6,33.8,29.90,West,271,5.0,17.0,34,0.00,,,0.00,Wunderground v.1.15,2013-05-12 18:57:00,
2013-05-12 15:02:00,62.6,34.5,29.89,WSW,253,7.0,13.0,35,0.00,,,0.00,Wunderground v.1.15,2013-05-12 19:02:00,
2013-05-12 15:07:00,62.9,37.5,29.89,West,265,9.0,13.0,39,0.00,,,0.00,Wunderground v.1.15,2013-05-12 19:07:00,
2013-05-12 15:12:00,62.9,32.6,29.89,West,279,4.0,10.0,32,0.00,,,0.00,Wunderground v.1.15,2013-05-12 19:12:00,
2013-05-12 15:17:00,62.8,33.2,29.89,NW,307,10.0,12.0,33,0.00,,,0.00,Wunderground v.1.15,2013-05-12 19:17:00,
2013-05-12 15:22:00,62.1,31.9,29.89,West,264,9.0,12.0,32,0.00,,,0.00,Wunderground v.1.15,2013-05-12 19:22:00,
2013-05-12 15:27:00,62.5,36.5,29.89,West,278,5.0,14.0,38,0.00,,,0.00,Wunderground v.1.15,2013-05-12 19:27:00,
2013-05-12 15:32:00,62.9,36.2,29.89,West,273,5.0,7.0,37,0.00,,,0.00,Wunderground v.1.15,2013-05-12 19:32:00,
2013-05-12 15:37:00,62.7,36.0,29.89,NW,308,9.0,12.0,37,0.00,,,0.00,Wunderground v.1.15,2013-05-12 19:37:00,
2013-05-12 15:42:00,62.9,38.8,29.89,West,271,10.0,17.0,41,0.00,,,0.00,Wunderground v.1.15,2013-05-12 19:42:00,
2013-05-12 15:47:00,63.1,37.7,29.89,NW,308,7.0,17.0,39,0.00,,,0.00,Wunderground v.1.15,2013-05-12 19:47:00,
2013-05-12 15:52:00,63.1,35.7,29.89,West,281,12.0,18.0,36,0.00,,,0.00,Wunderground v.1.15,2013-05-12 19:52:00,
2013-05-12 15:57:00,62.5,35.2,29.89,WNW,283,9.0,18.0,36,0.00,,,0.00,Wunderground v.1.15,2013-05-12 19:57:00,
2013-05-12 16:02:00,62.7,37.4,29.89,West,273,6.0,8.0,39,0.00,,,0.00,Wunderground v.1.15,2013-05-12 20:02:00,
2013-05-12 16:07:00,62.8,35.4,29.90,WNW,286,12.0,20.0,36,0.00,,,0.00,Wunderground v.1.15,2013-05-12 20:07:00,
2013-05-12 16:12:00,62.5,35.9,29.90,West,264,6.0,10.0,37,0.00,,,0.00,Wunderground v.1.15,2013-05-12 20:12:00,
2013-05-12 16:17:00,63.0,34.9,29.90,West,280,5.0,10.0,35,0.00,,,0.00,Wunderground v.1.15,2013-05-12 20:17:00,
2013-05-12 16:22:00,62.7,36.7,29.90,NW,309,8.0,14.0,38,0.00,,,0.00,Wunderground v.1.15,2013-05-12 20:22:00,
2013-05-12 16:27:00,62.5,36.5,29.90,WNW,296,9.0,18.0,38,0.00,,,0.00,Wunderground v.1.15,2013-05-12 20:27:00,
2013-05-12 16:32:00,62.6,37.3,29.90,WNW,300,13.0,13.0,39,0.00,,,0.00,Wunderground v.1.15,2013-05-12 20:32:00,
2013-05-12 16:37:00,62.6,35.9,29.90,West,261,6.0,14.0,37,0.00,,,0.00,Wunderground v.1.15,2013-05-12 20:37:00,
2013-05-12 16:42:00,62.7,34.6,29.90,West,278,7.0,12.0,35,0.00,,,0.00,Wunderground v.1.15,2013-05-12 20:42:00,
2013-05-12 16:47:00,62.9,35.5,29.90,WSW,256,12.0,17.0,36,0.00,,,0.00,Wunderground v.1.15,2013-05-12 20:47:00,
2013-05-12 16:52:00,62.5,35.9,29.90,West,279,15.0,19.0,37,0.00,,,0.00,Wunderground v.1.15,2013-05-12 20:52:00,
2013-05-12 16:57:00,62.6,35.3,29.90,NW,307,5.0,19.0,36,0.00,,,0.00,Wunderground v.1.15,2013-05-12 20:57:00,
2013-05-12 17:02:00,62.9,36.9,29.90,WNW,302,8.0,9.0,38,0.00,,,0.00,Wunderground v.1.15,2013-05-12 21:02:00,
2013-05-12 17:07:00,62.7,36.0,29.90,WNW,286,17.0,17.0,37,0.00,,,0.00,Wunderground v.1.15,2013-05-12 21:07:00,
2013-05-12 17:12:00,62.2,34.9,29.91,WNW,292,5.0,18.0,36,0.00,,,0.00,Wunderground v.1.15,2013-05-12 21:12:00,
2013-05-12 17:17:00,62.2,33.5,29.91,WSW,251,7.0,18.0,34,0.00,,,0.00,Wunderground v.1.15,2013-05-12 21:17:00,
2013-05-12 17:22:00,62.0,35.4,29.91,West,281,12.0,16.0,37,0.00,,,0.00,Wunderground v.1.15,2013-05-12 21:22:00,
2013-05-12 17:27:00,61.7,34.5,29.91,NW,311,5.0,16.0,36,0.00,,,0.00,Wunderground v.1.15,2013-05-12 21:27:00,
2013-05-12 17:32:00,61.8,35.9,29.91,West,280,10.0,17.0,38,0.00,,,0.00,Wunderground v.1.15,2013-05-12 21:32:00,
2013-05-12 17:38:00,61.4,34.9,29.91,West,271,8.0,17.0,37,0.00,,,0.00,Wunderground v.1.15,2013-05-12 21:38:00,
2013-05-12 17:43:00,61.7,34.5,29.91,West,268,15.0,15.0,36,0.00,,,0.00,Wunderground v.1.15,2013-05-12 21:43:00,
2013-05-12 17:48:00,61.4,34.2,29.91,West,278,15.0,16.0,36,0.00,,,0.00,Wunderground v.1.15,2013-05-12 21:48:00,
2013-05-12 17:53:00,61.0,32.4,29.92,WNW,285,5.0,15.0,34,0.00,,,0.00,Wunderground v.1.15,2013-05-12 21:53:00,
2013-05-12 17:58:00,60.8,34.3,29.91,West,275,9.0,15.0,37,0.00,,,0.00,Wunderground v.1.15,2013-05-12 21:58:00,
2013-05-12 18:03:00,60.7,34.9,29.92,WNW,290,8.0,11.0,38,0.00,,,0.00,Wunderground v.1.15,2013-05-12 22:03:00,
2013-05-12 18:08:00,60.7,34.3,29.92,WSW,257,6.0,17.0,37,0.00,,,0.00,Wunderground v.1.15,2013-05-12 22:08:00,
2013-05-12 18:13:00,60.4,33.3,29.92,West,266,7.0,13.0,36,0.00,,,0.00,Wunderground v.1.15,2013-05-12 22:13:00,
2013-05-12 18:18:00,59.8,34.1,29.92,West,263,5.0,15.0,38,0.00,,,0.00,Wunderground v.1.15,2013-05-12 22:18:00,
2013-05-12 18:23:00,59.7,34.7,29.92,NW,307,5.0,10.0,39,0.00,,,0.00,Wunderground v.1.15,2013-05-12 22:23:00,
2013-05-12 18:28:00,59.6,33.3,29.92,West,280,8.0,15.0,37,0.00,,,0.00,Wunderground v.1.15,2013-05-12 22:28:00,
2013-05-12 18:33:00,59.2,32.9,29.92,WNW,292,9.0,17.0,37,0.00,,,0.00,Wunderground v.1.15,2013-05-12 22:33:00,
2013-05-12 18:38:00,59.1,32.8,29.93,West,271,8.0,17.0,37,0.00,,,0.00,Wunderground v.1.15,2013-05-12 22:38:00,
2013-05-12 18:43:00,59.0,32.7,29.93,WSW,250,7.0,14.0,37,0.00,,,0.00,Wunderground v.1.15,2013-05-12 22:43:00,
2013-05-12 18:48:00,58.9,32.7,29.93,West,273,3.0,14.0,37,0.00,,,0.00,Wunderground v.1.15,2013-05-12 22:48:00,
2013-05-12 18:53:00,58.7,33.8,29.93,West,275,11.0,13.0,39,0.00,,,0.00,Wunderground v.1.15,2013-05-12 22:53:00,
2013-05-12 18:58:00,58.6,33.7,29.93,WSW,253,7.0,13.0,39,0.00,,,0.00,Wunderground v.1.15,2013-05-12 22:58:00,
2013-05-12 19:03:00,58.5,32.3,29.94,WNW,297,6.0,16.0,37,0.00,,,0.00,Wunderground v.1.15,2013-05-12 23:03:00,
2013-05-12 19:08:00,58.3,32.1,29.94,WNW,288,10.0,16.0,37,0.00,,,0.00,Wunderground v.1.15,2013-05-12 23:08:00,
2013-05-12 19:13:00,58.2,32.7,29.94,WSW,255,7.0,11.0,38,0.00,,,0.00,Wunderground v.1.15,2013-05-12 23:13:00,
2013-05-12 19:18:00,58.1,33.2,29.94,West,271,14.0,14.0,39,0.00,,,0.00,Wunderground v.1.15,2013-05-12 23:18:00,
2013-05-12 19:23:00,57.8,31.7,29.95,West,273,2.0,9.0,37,0.00,,,0.00,Wunderground v.1.15,2013-05-12 23:23:00,
2013-05-12 19:28:00,57.6,33.4,29.95,WNW,294,5.0,10.0,40,0.00,,,0.00,Wunderground v.1.15,2013-05-12 23:28:00,
2013-05-12 19:33:00,57.3,33.8,29.95,West,279,5.0,8.0,41,0.00,,,0.00,Wunderground v.1.15,2013-05-12 23:33:00,
2013-05-12 19:38:00,57.1,33.6,29.95,WNW,294,5.0,8.0,41,0.00,,,0.00,Wunderground v.1.15,2013-05-12 23:38:00,
2013-05-12 19:43:00,56.9,34.0,29.95,NW,318,6.0,14.0,42,0.00,,,0.00,Wunderground v.1.15,2013-05-12 23:43:00,
2013-05-12 19:48:00,56.9,33.4,29.96,WNW,287,6.0,14.0,41,0.00,,,0.00,Wunderground v.1.15,2013-05-12 23:48:00,
2013-05-12 19:53:00,56.7,32.6,29.96,West,276,6.0,7.0,40,0.00,,,0.00,Wunderground v.1.15,2013-05-12 23:53:00,
2013-05-12 19:58:00,56.4,33.0,29.96,West,281,4.0,9.0,41,0.00,,,0.00,Wunderground v.1.15,2013-05-12 23:58:00,
2013-05-12 20:04:00,56.3,32.9,29.97,WSW,258,5.0,8.0,41,0.00,,,0.00,Wunderground v.1.15,2013-05-13 00:04:00,
2013-05-12 20:09:00,56.2,32.8,29.97,West,261,4.0,10.0,41,0.00,,,0.00,Wunderground v.1.15,2013-05-13 00:09:00,
2013-05-12 20:14:00,56.1,32.1,29.97,West,261,6.0,8.0,40,0.00,,,0.00,Wunderground v.1.15,2013-05-13 00:14:00,
2013-05-12 20:19:00,56.0,32.6,29.97,WNW,288,2.0,9.0,41,0.00,,,0.00,Wunderground v.1.15,2013-05-13 00:19:00,
2013-05-12 20:24:00,55.6,32.8,29.98,WNW,286,4.0,5.0,42,0.00,,,0.00,Wunderground v.1.15,2013-05-13 00:24:00,
2013-05-12 20:29:00,55.3,32.6,29.98,WNW,287,3.0,6.0,42,0.00,,,0.00,Wunderground v.1.15,2013-05-13 00:29:00,
2013-05-12 20:34:00,55.2,33.1,29.98,WNW,292,4.0,7.0,43,0.00,,,0.00,Wunderground v.1.15,2013-05-13 00:34:00,
2013-05-12 20:39:00,55.1,31.8,29.98,West,280,4.0,7.0,41,0.00,,,0.00,Wunderground v.1.15,2013-05-13 00:39:00,
2013-05-12 20:44:00,55.2,33.1,29.99,West,273,2.0,4.0,43,0.00,,,0.00,Wunderground v.1.15,2013-05-13 00:44:00,
2013-05-12 20:49:00,55.0,32.9,29.99,West,272,2.0,4.0,43,0.00,,,0.00,Wunderground v.1.15,2013-05-13 00:49:00,
2013-05-12 20:54:00,54.6,33.1,29.99,West,272,2.0,3.0,44,0.00,,,0.00,Wunderground v.1.15,2013-05-13 00:54:00,
2013-05-12 20:59:00,54.0,33.1,30.00,West,276,2.0,5.0,45,0.00,,,0.00,Wunderground v.1.15,2013-05-13 00:59:00,
2013-05-12 21:05:00,54.1,33.2,30.00,West,276,2.0,4.0,45,0.00,,,0.00,Wunderground v.1.15,2013-05-13 01:05:00,
2013-05-12 21:10:00,54.0,33.1,30.00,West,276,2.0,2.0,45,0.00,,,0.00,Wunderground v.1.15,2013-05-13 01:10:00,
2013-05-12 21:15:00,54.0,32.6,30.00,West,281,3.0,6.0,44,0.00,,,0.00,Wunderground v.1.15,2013-05-13 01:15:00,
2013-05-12 21:20:00,54.1,32.1,30.00,West,278,5.0,6.0,43,0.00,,,0.00,Wunderground v.1.15,2013-05-13 01:20:00,
2013-05-12 21:25:00,54.2,32.2,30.01,WNW,300,1.0,6.0,43,0.00,,,0.00,Wunderground v.1.15,2013-05-13 01:25:00,
2013-05-12 21:30:00,54.0,32.6,30.01,WNW,286,6.0,6.0,44,0.00,,,0.00,Wunderground v.1.15,2013-05-13 01:30:00,
2013-05-12 21:35:00,54.0,31.4,30.01,West,281,1.0,7.0,42,0.00,,,0.00,Wunderground v.1.15,2013-05-13 01:35:00,
2013-05-12 21:40:00,54.0,30.8,30.01,West,264,3.0,4.0,41,0.00,,,0.00,Wunderground v.1.15,2013-05-13 01:40:00,
2013-05-12 21:45:00,53.7,31.1,30.02,WNW,284,4.0,7.0,42,0.00,,,0.00,Wunderground v.1.15,2013-05-13 01:45:00,
2013-05-12 21:50:00,53.7,31.1,30.02,WNW,285,2.0,4.0,42,0.00,,,0.00,Wunderground v.1.15,2013-05-13 01:50:00,
2013-05-12 21:55:00,53.6,31.0,30.03,West,271,3.0,6.0,42,0.00,,,0.00,Wunderground v.1.15,2013-05-13 01:55:00,
2013-05-12 22:00:00,53.6,31.6,30.03,WNW,288,1.0,4.0,43,0.00,,,0.00,Wunderground v.1.15,2013-05-13 02:00:00,
2013-05-12 22:05:00,53.4,30.9,30.03,West,279,4.0,5.0,42,0.00,,,0.00,Wunderground v.1.15,2013-05-13 02:05:00,
2013-05-12 22:10:00,53.3,31.9,30.03,West,272,3.0,4.0,44,0.00,,,0.00,Wunderground v.1.15,2013-05-13 02:10:00,
2013-05-12 22:15:00,53.2,30.7,30.03,West,273,1.0,4.0,42,0.00,,,0.00,Wunderground v.1.15,2013-05-13 02:15:00,
2013-05-12 22:20:00,52.9,31.0,30.04,West,273,4.0,4.0,43,0.00,,,0.00,Wunderground v.1.15,2013-05-13 02:20:00,
2013-05-12 22:25:00,52.8,30.9,30.04,West,273,3.0,5.0,43,0.00,,,0.00,Wunderground v.1.15,2013-05-13 02:25:00,
2013-05-12 22:30:00,52.7,30.8,30.04,West,275,2.0,3.0,43,0.00,,,0.00,Wunderground v.1.15,2013-05-13 02:30:00,
2013-05-12 22:35:00,52.6,31.3,30.04,West,275,3.0,4.0,44,0.00,,,0.00,Wunderground v.1.15,2013-05-13 02:35:00,
2013-05-12 22:40:00,52.4,31.1,30.04,West,276,4.0,4.0,44,0.00,,,0.00,Wunderground v.1.15,2013-05-13 02:40:00,
2013-05-12 22:45:00,52.3,31.0,30.05,West,276,2.0,5.0,44,0.00,,,0.00,Wunderground v.1.15,2013-05-13 02:45:00,
2013-05-12 22:50:00,52.1,30.8,30.05,West,275,3.0,3.0,44,0.00,,,0.00,Wunderground v.1.15,2013-05-13 02:50:00,
2013-05-12 22:55:00,52.1,30.8,30.05,West,277,2.0,4.0,44,0.00,,,0.00,Wunderground v.1.15,2013-05-13 02:55:00,
2013-05-12 23:01:00,51.9,31.2,30.05,WNW,302,0.0,3.0,45,0.00,,,0.00,Wunderground v.1.15,2013-05-13 03:01:00,
2013-05-12 23:06:00,51.7,30.5,30.05,West,274,1.0,4.0,44,0.00,,,0.00,Wunderground v.1.15,2013-05-13 03:06:00,
2013-05-12 23:11:00,51.5,31.4,30.05,WNW,286,2.0,3.0,46,0.00,,,0.00,Wunderground v.1.15,2013-05-13 03:11:00,
2013-05-12 23:16:00,51.4,31.8,30.05,West,273,4.0,5.0,47,0.00,,,0.00,Wunderground v.1.15,2013-05-13 03:16:00,
2013-05-12 23:21:00,51.3,31.2,30.05,West,273,4.0,4.0,46,0.00,,,0.00,Wunderground v.1.15,2013-05-13 03:21:00,
2013-05-12 23:26:00,51.2,31.1,30.05,West,280,2.0,5.0,46,0.00,,,0.00,Wunderground v.1.15,2013-05-13 03:26:00,
2013-05-12 23:31:00,51.4,30.7,30.05,West,265,4.0,5.0,45,0.00,,,0.00,Wunderground v.1.15,2013-05-13 03:31:00,
2013-05-12 23:36:00,51.5,30.3,30.05,West,269,2.0,6.0,44,0.00,,,0.00,Wunderground v.1.15,2013-05-13 03:36:00,
2013-05-12 23:41:00,51.6,30.4,30.05,WNW,292,3.0,3.0,44,0.00,,,0.00,Wunderground v.1.15,2013-05-13 03:41:00,
2013-05-12 23:46:00,51.6,30.4,30.05,WNW,284,2.0,5.0,44,0.00,,,0.00,Wunderground v.1.15,2013-05-13 03:46:00,
2013-05-12 23:51:00,51.2,30.6,30.05,West,274,2.0,3.0,45,0.00,,,0.00,Wunderground v.1.15,2013-05-13 03:51:00,
2013-05-12 23:56:00,51.0,31.5,30.05,WNW,286,4.0,4.0,47,0.00,,,0.00,Wunderground v.1.15,2013-05-13 03:56:00,